Weather History for Eastsound, WA

Change the Weather History Date:

Sunday, November 13, 2011

  Actual Average (KBLI) Record (KBLI)
Temperature  
Mean Temperature 44 °F 44 °F  
Max Temperature 48 °F 50 °F 61 °F (1975)
Min Temperature 39 °F 37 °F 10 °F (1955)
Degree Days  
Heating Degree Days 22 21  
Month to date heating degree days 258  
Cooling Degree Days 0 0  
Month to date cooling degree days 0  
Year to date cooling degree days 42  
Moisture  
Dew Point 40 °F    
Average Humidity 84    
Maximum Humidity 100    
Minimum Humidity 71    
Precipitation  
Precipitation 0.00 in 0.20 in 0.94 in (1998)
Month to date precipitation 2.53  
Year to date precipitation 28.34  
Sea Level Pressure  
Sea Level Pressure 29.76 in    
Wind  
Wind Speed 7 mph (SSW)    
Max Wind Speed 15 mph    
Max Gust Speed 20 mph    
Visibility 10 miles    
Events      
T = Trace of Precipitation, MM = Missing Value Source: NWS Daily Summary

Daily Weather History Graph

Daily Weather History Graph

Search for Another Location

Airport:

Trip Planner

Search our weather history database for the weather conditions in past years. The results will help you decide how hot, cold, wet, or windy it might be!

Date:

Astronomy

Nov. 13, 2011 Rise Set
Actual Time 7:16 AM PST 4:34 PM PST
Civil Twilight 6:42 AM PST 5:08 PM PST
Nautical Twilight 6:04 AM PST 5:46 PM PST
Astronomical Twilight 5:27 AM PST 6:23 PM PST
Moon 6:39 PM PST (11/13) 10:03 AM PST (11/13)
Length of Visible Light 10h 25m
Length of Day
9h 17m
Waning Gibbous, 92% of the Moon is Illuminated
Nov 13
Waning Gibbous
Nov 18
Last Quarter
Nov 24
New
Dec 2
First Quarter
Dec 10
Full

Hourly Weather History & Observations

Time (PST) Temp. Windchill Dew Point Humidity Pressure Visibility Wind Dir Wind Speed Gust Speed Precip Events Conditions
12:15 AM 44.6 °F 42.2 °F 41.0 °F 87% 29.65 in 10.0 mi West 4.6 mph - N/A   Mostly Cloudy
12:35 AM 44.6 °F - 41.0 °F 87% 29.66 in 10.0 mi Calm Calm - N/A   Scattered Clouds
12:55 AM 44.6 °F 43.1 °F 41.0 °F 87% 29.67 in 10.0 mi SSW 3.5 mph - N/A   Clear
1:15 AM 44.6 °F 42.2 °F 41.0 °F 87% 29.69 in 10.0 mi SSE 4.6 mph - N/A   Mostly Cloudy
1:35 AM 44.6 °F 42.2 °F 41.0 °F 87% 29.70 in 10.0 mi SW 4.6 mph - N/A   Mostly Cloudy
1:55 AM 42.8 °F 40.1 °F 41.0 °F 93% 29.70 in 10.0 mi SSW 4.6 mph - N/A   Mostly Cloudy
2:15 AM 41.0 °F 36.4 °F 41.0 °F 100% 29.71 in 10.0 mi SSW 6.9 mph - N/A   Mostly Cloudy
2:35 AM 41.0 °F 37.1 °F 41.0 °F 100% 29.71 in 10.0 mi South 5.8 mph - N/A   Mostly Cloudy
2:55 AM 41.0 °F 38.0 °F 41.0 °F 100% 29.71 in 10.0 mi South 4.6 mph - N/A   Scattered Clouds
3:15 AM 41.0 °F - 41.0 °F 100% 29.72 in 10.0 mi North - - N/A   Scattered Clouds
3:35 AM 41.0 °F - 39.2 °F 93% 29.72 in 10.0 mi Calm Calm - N/A   Partly Cloudy
3:55 AM 41.0 °F 39.0 °F 41.0 °F 100% 29.73 in 10.0 mi South 3.5 mph - N/A   Clear
4:15 AM 41.0 °F 37.1 °F 41.0 °F 100% 29.73 in 10.0 mi South 5.8 mph - N/A   Scattered Clouds
4:35 AM 42.8 °F 38.6 °F 41.0 °F 93% 29.73 in 10.0 mi South 6.9 mph - N/A   Scattered Clouds
4:55 AM 42.8 °F 38.6 °F 39.2 °F 87% 29.73 in 10.0 mi South 6.9 mph - N/A   Scattered Clouds
5:15 AM 41.0 °F 36.4 °F 39.2 °F 93% 29.74 in 10.0 mi South 6.9 mph - N/A   Scattered Clouds
5:35 AM 41.0 °F 37.1 °F 39.2 °F 93% 29.74 in 10.0 mi South 5.8 mph - N/A   Clear
5:55 AM 41.0 °F 37.1 °F 39.2 °F 93% 29.74 in 10.0 mi South 5.8 mph - N/A   Clear
6:35 AM 39.2 °F 35.0 °F 37.4 °F 93% 29.75 in 10.0 mi South 5.8 mph - N/A   Clear
7:15 AM 39.2 °F 35.0 °F 37.4 °F 93% 29.76 in 10.0 mi SSW 5.8 mph - N/A   Clear
7:35 AM 39.2 °F 35.9 °F 37.4 °F 93% 29.76 in 10.0 mi South 4.6 mph - N/A   Clear
7:55 AM 39.2 °F 35.9 °F 37.4 °F 93% 29.77 in 10.0 mi South 4.6 mph - N/A   Clear
8:15 AM 39.2 °F 37.0 °F 37.4 °F 93% 29.78 in 10.0 mi South 3.5 mph - N/A   Clear
8:35 AM 41.0 °F 39.0 °F 37.4 °F 87% 29.78 in 10.0 mi South 3.5 mph - N/A   Clear
8:55 AM 41.0 °F 36.4 °F 39.2 °F 93% 29.79 in 10.0 mi South 6.9 mph - N/A   Partly Cloudy
9:15 AM 42.8 °F 38.0 °F 39.2 °F 87% 29.79 in 10.0 mi SSW 8.1 mph - N/A   Partly Cloudy
9:35 AM 44.6 °F 43.1 °F 39.2 °F 81% 29.79 in 9.0 mi South 3.5 mph - N/A   Clear
9:55 AM 44.6 °F 40.2 °F 39.2 °F 81% 29.80 in 10.0 mi SSW 8.1 mph - N/A   Scattered Clouds
10:15 AM 46.4 °F 43.5 °F 39.2 °F 76% 29.80 in 10.0 mi SSW 5.8 mph - N/A   Mostly Cloudy
10:35 AM 46.4 °F 42.9 °F 39.2 °F 76% 29.80 in 10.0 mi South 6.9 mph - N/A   Scattered Clouds
10:55 AM 46.4 °F 41.5 °F 39.2 °F 76% 29.80 in 9.0 mi SSW 10.4 mph - N/A   Mostly Cloudy
11:15 AM 46.4 °F 41.9 °F 41.0 °F 81% 29.81 in 10.0 mi SSW 9.2 mph - N/A   Mostly Cloudy
11:35 AM 46.4 °F 41.9 °F 41.0 °F 81% 29.80 in 10.0 mi SSW 9.2 mph - N/A   Mostly Cloudy
11:55 AM 46.4 °F 41.1 °F 41.0 °F 81% 29.79 in 10.0 mi SSW 11.5 mph - N/A   Mostly Cloudy
12:15 PM 46.4 °F 40.7 °F 41.0 °F 81% 29.79 in 10.0 mi SSW 12.7 mph - N/A   Mostly Cloudy
12:35 PM 46.4 °F 40.7 °F 41.0 °F 81% 29.79 in 10.0 mi SSW 12.7 mph - N/A   Mostly Cloudy
12:55 PM 48.2 °F - 41.0 °F 76% 29.78 in 10.0 mi SSW 9.2 mph - N/A   Mostly Cloudy
1:15 PM 48.2 °F - 41.0 °F 76% 29.78 in 10.0 mi SSW 13.8 mph - N/A   Mostly Cloudy
1:35 PM 48.2 °F - 41.0 °F 76% 29.78 in 10.0 mi SSW 15.0 mph - N/A   Mostly Cloudy
1:55 PM 48.2 °F - 41.0 °F 76% 29.78 in 10.0 mi SSW 10.4 mph 19.6 mph N/A   Scattered Clouds
2:15 PM 48.2 °F - 41.0 °F 76% 29.77 in 10.0 mi SSW 12.7 mph - N/A   Mostly Cloudy
2:35 PM 48.2 °F - 41.0 °F 76% 29.78 in 10.0 mi SSW 12.7 mph 19.6 mph N/A   Mostly Cloudy
2:55 PM 48.2 °F - 41.0 °F 76% 29.78 in 10.0 mi SSW 13.8 mph - N/A   Partly Cloudy
3:15 PM 48.2 °F - 41.0 °F 76% 29.76 in 10.0 mi SSW 12.7 mph - N/A   Partly Cloudy
3:35 PM 48.2 °F - 41.0 °F 76% 29.77 in 10.0 mi SSW 10.4 mph 19.6 mph N/A   Partly Cloudy
3:55 PM 48.2 °F - 39.2 °F 71% 29.76 in 10.0 mi SSW 12.7 mph 18.4 mph N/A   Partly Cloudy
4:15 PM 46.4 °F 40.1 °F 39.2 °F 76% 29.76 in 10.0 mi SSW 15.0 mph 18.4 mph N/A   Clear
4:35 PM 46.4 °F 40.4 °F 39.2 °F 76% 29.75 in 10.0 mi SSW 13.8 mph - N/A   Partly Cloudy
4:55 PM 46.4 °F 41.1 °F 41.0 °F 81% 29.76 in 10.0 mi SSW 11.5 mph - N/A   Mostly Cloudy
5:15 PM 46.4 °F 41.1 °F 39.2 °F 76% 29.76 in 10.0 mi SSW 11.5 mph - N/A   Mostly Cloudy
5:35 PM 46.4 °F 40.7 °F 41.0 °F 81% 29.77 in 10.0 mi SSW 12.7 mph - N/A   Scattered Clouds
5:55 PM 46.4 °F 41.5 °F 41.0 °F 81% 29.76 in 10.0 mi SSW 10.4 mph - N/A   Partly Cloudy
6:15 PM 46.4 °F 42.4 °F 41.0 °F 81% 29.76 in 10.0 mi South 8.1 mph - N/A   Partly Cloudy
6:35 PM 46.4 °F 40.7 °F 41.0 °F 81% 29.76 in 10.0 mi South 12.7 mph - N/A   Mostly Cloudy
6:55 PM 46.4 °F 41.1 °F 39.2 °F 76% 29.76 in 10.0 mi SSW 11.5 mph - N/A   Scattered Clouds
7:15 PM 46.4 °F 41.1 °F 39.2 °F 76% 29.76 in 10.0 mi South 11.5 mph 17.3 mph N/A   Clear
7:35 PM 46.4 °F 41.1 °F 39.2 °F 76% 29.76 in 10.0 mi South 11.5 mph 16.1 mph N/A   Clear
7:55 PM 46.4 °F 40.7 °F 39.2 °F 76% 29.76 in 10.0 mi South 12.7 mph - N/A   Clear
8:15 PM 46.4 °F 41.1 °F 39.2 °F 76% 29.77 in 10.0 mi South 11.5 mph - N/A   Clear
8:35 PM 46.4 °F 41.5 °F 39.2 °F 76% 29.77 in 10.0 mi SSW 10.4 mph - N/A   Clear
8:55 PM 46.4 °F 41.1 °F 39.2 °F 76% 29.76 in 10.0 mi South 11.5 mph - N/A   Clear
9:15 PM 46.4 °F 41.1 °F 41.0 °F 81% 29.77 in 10.0 mi SSW 11.5 mph - N/A   Clear
9:35 PM 44.6 °F 39.2 °F 41.0 °F 87% 29.77 in 10.0 mi SSW 10.4 mph - N/A   Clear
9:55 PM 46.4 °F 41.5 °F 41.0 °F 81% 29.77 in 10.0 mi South 10.4 mph - N/A   Partly Cloudy
10:15 PM 46.4 °F 41.9 °F 41.0 °F 81% 29.77 in 10.0 mi South 9.2 mph - N/A   Partly Cloudy
10:35 PM 46.4 °F 41.5 °F 41.0 °F 81% 29.77 in 10.0 mi South 10.4 mph 17.3 mph N/A   Clear
10:55 PM 46.4 °F 40.7 °F 41.0 °F 81% 29.77 in 10.0 mi South 12.7 mph - N/A   Clear
11:15 PM 46.4 °F 41.5 °F 39.2 °F 76% 29.77 in 10.0 mi SSW 10.4 mph 19.6 mph N/A   Clear
11:35 PM 46.4 °F 41.5 °F 39.2 °F 76% 29.77 in 10.0 mi SSW 10.4 mph - N/A   Partly Cloudy
11:55 PM 44.6 °F 40.2 °F 39.2 °F 81% 29.78 in 10.0 mi SSW 8.1 mph - N/A   Partly Cloudy